SWA4350 KBNA-KLGA

Flight info

Callsign SWA4350
Flight time 1h 43m
Altitude 35000
Route KRSTA4 OLSIE IIU Q139 CREEP Q29 WWSHR TEESY Q186 WEVEL ETG MIP4
Aircraft B738/M-SADE2E3GIJ4RWZ/LB1D1

Departure

Time 2026-05-08 01:08
Airport Nashville International Airport (KBNA)

Arrival

Time 2026-05-08 02:52
Airport LaGuardia Airport (KLGA)
Time Latitude Longitude Altitude Speed Heading
2026-05-08 00:20 36.12980 -86.66825 571 ft 0 kts 41°
2026-05-08 00:56 36.12978 -86.66827 569 ft 3 kts 41°
2026-05-08 00:56 36.12961 -86.66846 570 ft 4 kts 44°
2026-05-08 00:56 36.12949 -86.66871 572 ft 4 kts 97°
2026-05-08 00:56 36.12958 -86.66899 572 ft 2 kts 128°
2026-05-08 00:57 36.12962 -86.66905 571 ft 1 kts 128°
2026-05-08 00:58 36.12961 -86.66905 571 ft 1 kts 128°
2026-05-08 00:59 36.12944 -86.66878 569 ft 9 kts 128°
2026-05-08 00:59 36.12883 -86.66791 569 ft 18 kts 132°
2026-05-08 00:59 36.12764 -86.66737 572 ft 19 kts 192°
2026-05-08 00:59 36.12668 -86.66822 572 ft 14 kts 218°
2026-05-08 01:00 36.12662 -86.66827 569 ft 1 kts 218°
2026-05-08 01:00 36.12655 -86.66835 574 ft 3 kts 218°
2026-05-08 01:00 36.12621 -86.66869 570 ft 10 kts 234°
2026-05-08 01:00 36.12669 -86.66973 574 ft 21 kts 310°
2026-05-08 01:01 36.12767 -86.67106 568 ft 21 kts 313°
2026-05-08 01:01 36.12850 -86.67237 569 ft 19 kts 283°
2026-05-08 01:01 36.12809 -86.67325 574 ft 7 kts 223°
2026-05-08 01:01 36.12775 -86.67364 573 ft 7 kts 223°
2026-05-08 01:02 36.12732 -86.67417 576 ft 12 kts 237°
2026-05-08 01:02 36.12777 -86.67524 573 ft 19 kts 317°
2026-05-08 01:02 36.12892 -86.67662 578 ft 25 kts 314°
2026-05-08 01:02 36.13009 -86.67810 574 ft 23 kts 313°
2026-05-08 01:03 36.13042 -86.67965 573 ft 22 kts 208°
2026-05-08 01:03 36.12900 -86.68018 574 ft 21 kts 197°
2026-05-08 01:03 36.12763 -86.68069 575 ft 20 kts 197°
2026-05-08 01:03 36.12630 -86.68119 573 ft 20 kts 197°
2026-05-08 01:04 36.12501 -86.68164 575 ft 19 kts 195°
2026-05-08 01:04 36.12375 -86.68209 572 ft 18 kts 196°
2026-05-08 01:04 36.12254 -86.68252 576 ft 18 kts 196°
2026-05-08 01:04 36.12089 -86.68313 574 ft 26 kts 197°
2026-05-08 01:05 36.11921 -86.68372 581 ft 24 kts 196°
2026-05-08 01:05 36.11774 -86.68427 581 ft 17 kts 204°
2026-05-08 01:05 36.11742 -86.68478 581 ft 4 kts 251°
2026-05-08 01:05 36.11741 -86.68495 580 ft 2 kts 269°
2026-05-08 01:06 36.11742 -86.68524 579 ft 5 kts 288°
2026-05-08 01:06 36.11772 -86.68607 576 ft 15 kts 305°
2026-05-08 01:06 36.11845 -86.68618 580 ft 2 kts 18°
2026-05-08 01:06 36.11846 -86.68617 578 ft 0 kts 18°
2026-05-08 01:07 36.11847 -86.68617 579 ft 0 kts 18°
2026-05-08 01:08 36.11863 -86.68610 578 ft 9 kts 18°
2026-05-08 01:08 36.12192 -86.68481 569 ft 91 kts 18°
2026-05-08 01:08 36.13029 -86.68153 595 ft 157 kts 15°
2026-05-08 01:08 36.14103 -86.67731 1340 ft 163 kts 16°
2026-05-08 01:09 36.15178 -86.67295 2365 ft 161 kts 17°
2026-05-08 01:09 36.16300 -86.66816 3035 ft 186 kts 18°
2026-05-08 01:09 36.17639 -86.66241 3335 ft 218 kts 18°
2026-05-08 01:09 36.19140 -86.65593 3816 ft 234 kts 18°
2026-05-08 01:10 36.20717 -86.64911 4392 ft 249 kts 18°
2026-05-08 01:10 36.22392 -86.64186 5099 ft 260 kts 19°
2026-05-08 01:10 36.24110 -86.63441 6136 ft 263 kts 18°
2026-05-08 01:10 36.25851 -86.62689 7075 ft 268 kts 17°
2026-05-08 01:11 36.27629 -86.61921 8021 ft 273 kts 16°
2026-05-08 01:11 36.29437 -86.61138 8968 ft 278 kts 15°
2026-05-08 01:11 36.31269 -86.60292 9944 ft 284 kts 15°
2026-05-08 01:11 36.33147 -86.59394 10598 ft 299 kts 15°
2026-05-08 01:12 36.35188 -86.58418 10801 ft 328 kts 15°
2026-05-08 01:12 36.37402 -86.57358 11009 ft 355 kts 16°
2026-05-08 01:12 36.39751 -86.56228 11275 ft 376 kts 16°
2026-05-08 01:12 36.42223 -86.55032 11883 ft 385 kts 15°
2026-05-08 01:13 36.44745 -86.53808 12615 ft 391 kts 15°
2026-05-08 01:13 36.47299 -86.52572 13365 ft 396 kts 15°
2026-05-08 01:13 36.49892 -86.51320 14037 ft 402 kts 14°
2026-05-08 01:13 36.52515 -86.50054 14676 ft 407 kts 14°
2026-05-08 01:14 36.55172 -86.48771 15369 ft 410 kts 14°
2026-05-08 01:14 36.57840 -86.47484 16026 ft 413 kts 14°
2026-05-08 01:14 36.60538 -86.46146 16647 ft 419 kts 14°
2026-05-08 01:14 36.63246 -86.44755 17275 ft 424 kts 15°
2026-05-08 01:15 36.65984 -86.43335 17900 ft 428 kts 14°
2026-05-08 01:15 36.68751 -86.41906 18476 ft 432 kts 14°
2026-05-08 01:15 36.71542 -86.40475 19043 ft 435 kts 14°
2026-05-08 01:15 36.74327 -86.38963 19590 ft 441 kts 17°
2026-05-08 01:16 36.77061 -86.37266 20070 ft 448 kts 19°
2026-05-08 01:16 36.79843 -86.35437 20565 ft 453 kts 20°
2026-05-08 01:16 36.82641 -86.33568 21054 ft 458 kts 19°
2026-05-08 01:16 36.85465 -86.31688 21533 ft 461 kts 19°
2026-05-08 01:17 36.88315 -86.29808 21991 ft 465 kts 19°
2026-05-08 01:17 36.91191 -86.27926 22437 ft 469 kts 19°
2026-05-08 01:17 36.94106 -86.26029 22920 ft 472 kts 18°
2026-05-08 01:17 36.97036 -86.24127 23327 ft 477 kts 18°
2026-05-08 01:18 36.99995 -86.22206 23712 ft 480 kts 18°
2026-05-08 01:18 37.01964 -86.20925 23945 ft 482 kts 18°
2026-05-08 01:18 37.04952 -86.18980 24293 ft 486 kts 18°
2026-05-08 01:18 37.07957 -86.17021 24635 ft 489 kts 18°
2026-05-08 01:19 37.10986 -86.15044 24978 ft 492 kts 17°
2026-05-08 01:19 37.15024 -86.12406 25413 ft 496 kts 17°
2026-05-08 01:19 37.18098 -86.10395 25771 ft 499 kts 17°
2026-05-08 01:19 37.20184 -86.09030 25997 ft 501 kts 17°
2026-05-08 01:20 37.23276 -86.07007 26327 ft 503 kts 17°
2026-05-08 01:20 37.26414 -86.05084 26643 ft 501 kts 14°
2026-05-08 01:20 37.29597 -86.03285 26930 ft 502 kts 13°
2026-05-08 01:20 37.32764 -86.01559 27213 ft 504 kts 12°
2026-05-08 01:21 37.35994 -85.99809 27529 ft 506 kts 12°
2026-05-08 01:21 37.39225 -85.98042 27953 ft 506 kts 13°
2026-05-08 01:21 37.42441 -85.96259 28552 ft 503 kts 13°
2026-05-08 01:21 37.45623 -85.94473 29191 ft 498 kts 12°
2026-05-08 01:22 37.48785 -85.92690 29688 ft 498 kts 12°
2026-05-08 01:22 37.51943 -85.90910 30067 ft 499 kts 12°
2026-05-08 01:22 37.55129 -85.89114 30392 ft 500 kts 12°
2026-05-08 01:22 37.58307 -85.87321 30734 ft 501 kts 12°
2026-05-08 01:23 37.61489 -85.85522 31077 ft 501 kts 11°
2026-05-08 01:23 37.64665 -85.83725 31448 ft 502 kts 11°
2026-05-08 01:23 37.67849 -85.81918 31921 ft 498 kts 11°
2026-05-08 01:23 37.71006 -85.80124 32300 ft 498 kts 10°
2026-05-08 01:24 37.74180 -85.78324 32539 ft 501 kts 10°
2026-05-08 01:24 37.77363 -85.76521 32799 ft 503 kts
2026-05-08 01:24 37.80518 -85.74729 33132 ft 503 kts
2026-05-08 01:24 37.83707 -85.72912 33486 ft 503 kts
2026-05-08 01:25 37.86896 -85.71093 33818 ft 503 kts
2026-05-08 01:25 37.90088 -85.69272 34232 ft 502 kts
2026-05-08 01:25 37.93266 -85.67453 34631 ft 499 kts
2026-05-08 01:25 37.96421 -85.65646 34991 ft 497 kts
2026-05-08 01:26 37.99582 -85.63841 35028 ft 498 kts
2026-05-08 01:26 38.05894 -85.60228 35055 ft 496 kts
2026-05-08 01:27 38.12167 -85.56551 35071 ft 500 kts 12°
2026-05-08 01:27 38.18317 -85.52424 35057 ft 504 kts 14°
2026-05-08 01:28 38.24462 -85.48147 35047 ft 503 kts 14°
2026-05-08 01:28 38.30612 -85.43913 35044 ft 502 kts 14°
2026-05-08 01:29 38.36780 -85.39708 35053 ft 501 kts 14°
2026-05-08 01:29 38.42932 -85.35514 35038 ft 502 kts 14°
2026-05-08 01:30 38.49049 -85.31332 35035 ft 502 kts 14°
2026-05-08 01:30 38.55207 -85.27109 35040 ft 502 kts 14°
2026-05-08 01:31 38.61372 -85.22874 35041 ft 503 kts 14°
2026-05-08 01:31 38.67540 -85.18628 35034 ft 503 kts 14°
2026-05-08 01:32 38.73702 -85.14378 35035 ft 503 kts 14°
2026-05-08 01:32 38.79824 -85.10146 35086 ft 503 kts 14°
2026-05-08 01:33 38.85980 -85.05884 35028 ft 503 kts 14°
2026-05-08 01:33 38.92121 -85.01612 35035 ft 502 kts 14°
2026-05-08 01:34 38.98254 -84.97342 35032 ft 501 kts 14°
2026-05-08 01:34 39.04379 -84.93069 35053 ft 500 kts 14°
2026-05-08 01:35 39.10501 -84.88793 35038 ft 500 kts 14°
2026-05-08 01:35 39.16609 -84.84516 35044 ft 499 kts 14°
2026-05-08 01:36 39.22701 -84.80238 35030 ft 498 kts 14°
2026-05-08 01:36 39.28786 -84.75957 35047 ft 499 kts 15°
2026-05-08 01:37 39.34885 -84.71658 35046 ft 498 kts 15°
2026-05-08 01:37 39.40932 -84.67387 35027 ft 498 kts 15°
2026-05-08 01:38 39.47013 -84.63084 35073 ft 498 kts 15°
2026-05-08 01:38 39.53095 -84.58773 35052 ft 498 kts 15°
2026-05-08 01:39 39.59182 -84.54446 35044 ft 498 kts 15°
2026-05-08 01:39 39.65254 -84.50122 35043 ft 498 kts 15°
2026-05-08 01:40 39.71328 -84.45790 35052 ft 498 kts 17°
2026-05-08 01:40 39.77400 -84.41449 35035 ft 497 kts 17°
2026-05-08 01:41 39.83421 -84.37134 35021 ft 497 kts 17°
2026-05-08 01:41 39.89462 -84.32798 35059 ft 496 kts 18°
2026-05-08 01:41 39.92424 -84.30393 35018 ft 508 kts 25°
2026-05-08 01:42 39.95158 -84.27382 35025 ft 519 kts 33°
2026-05-08 01:42 40.00325 -84.20749 35015 ft 521 kts 36°
2026-05-08 01:43 40.05446 -84.14064 35015 ft 520 kts 35°
2026-05-08 01:43 40.10600 -84.07454 35054 ft 518 kts 34°
2026-05-08 01:44 40.15765 -84.00888 35024 ft 518 kts 34°
2026-05-08 01:44 40.20924 -83.94319 35012 ft 517 kts 34°
2026-05-08 01:45 40.26078 -83.87732 35012 ft 517 kts 34°
2026-05-08 01:45 40.31219 -83.81143 35081 ft 517 kts 34°
2026-05-08 01:46 40.36339 -83.74568 35024 ft 518 kts 34°
2026-05-08 01:46 40.41493 -83.67932 35016 ft 519 kts 34°
2026-05-08 01:47 40.46645 -83.61284 35014 ft 519 kts 34°
2026-05-08 01:47 40.51791 -83.54629 35015 ft 519 kts 34°
2026-05-08 01:48 40.59511 -83.44611 35008 ft 520 kts 35°
2026-05-08 01:48 40.64628 -83.37951 35007 ft 521 kts 35°
2026-05-08 01:49 40.69772 -83.31216 35005 ft 523 kts 37°
2026-05-08 01:49 40.74475 -83.23722 35019 ft 534 kts 44°
2026-05-08 01:50 40.78945 -83.15882 35001 ft 534 kts 44°
2026-05-08 01:50 40.83415 -83.08102 34993 ft 533 kts 44°
2026-05-08 01:51 40.87944 -83.00356 34990 ft 532 kts 43°
2026-05-08 01:51 40.92481 -82.92620 35031 ft 531 kts 44°
2026-05-08 01:52 40.97004 -82.84881 34996 ft 531 kts 44°
2026-05-08 01:52 41.01487 -82.77178 34986 ft 530 kts 44°
2026-05-08 01:53 41.05981 -82.69437 34990 ft 529 kts 44°
2026-05-08 01:53 41.10435 -82.61746 34994 ft 529 kts 44°
2026-05-08 01:54 41.14832 -82.53897 34993 ft 536 kts 51°
2026-05-08 01:54 41.18431 -82.45154 34990 ft 541 kts 57°
2026-05-08 01:55 41.21867 -82.36275 34979 ft 540 kts 56°
2026-05-08 01:55 41.25366 -82.27472 34983 ft 539 kts 55°
2026-05-08 01:56 41.28902 -82.18698 34982 ft 538 kts 55°
2026-05-08 01:56 41.32393 -82.09876 34984 ft 542 kts 60°
2026-05-08 01:57 41.34620 -82.00221 34979 ft 551 kts 79°
2026-05-08 01:57 41.35197 -81.90044 34977 ft 552 kts 86°
2026-05-08 01:58 41.35549 -81.79897 34974 ft 552 kts 86°
2026-05-08 01:58 41.35956 -81.69688 34974 ft 552 kts 85°
2026-05-08 01:59 41.36412 -81.59491 34974 ft 552 kts 85°
2026-05-08 01:59 41.36873 -81.49301 34991 ft 552 kts 85°
2026-05-08 02:00 41.37321 -81.39092 34985 ft 552 kts 85°
2026-05-08 02:00 41.37754 -81.28896 34994 ft 552 kts 86°
2026-05-08 02:01 41.38179 -81.18678 34992 ft 553 kts 86°
2026-05-08 02:01 41.38592 -81.08520 35003 ft 553 kts 86°
2026-05-08 02:02 41.38999 -80.98295 34983 ft 554 kts 86°
2026-05-08 02:02 41.39399 -80.88038 35001 ft 554 kts 86°
2026-05-08 02:03 41.39790 -80.77762 34988 ft 555 kts 86°
2026-05-08 02:03 41.40172 -80.67488 35012 ft 556 kts 86°
2026-05-08 02:04 41.40545 -80.57199 34984 ft 555 kts 86°
2026-05-08 02:04 41.40908 -80.46924 34970 ft 555 kts 86°
2026-05-08 02:05 41.41262 -80.36656 34987 ft 554 kts 86°
2026-05-08 02:05 41.41606 -80.26414 34991 ft 553 kts 86°
2026-05-08 02:06 41.41940 -80.16234 34992 ft 553 kts 87°
2026-05-08 02:06 41.41777 -80.06020 34993 ft 552 kts 98°
2026-05-08 02:07 41.40742 -79.95872 34984 ft 552 kts 100°
2026-05-08 02:07 41.39837 -79.87458 34988 ft 552 kts 99°
2026-05-08 02:08 41.38801 -79.77314 34981 ft 553 kts 99°
2026-05-08 02:08 41.37799 -79.67157 34977 ft 554 kts 99°
2026-05-08 02:09 41.36792 -79.56971 34970 ft 555 kts 99°
2026-05-08 02:09 41.35769 -79.46778 34975 ft 555 kts 99°
2026-05-08 02:10 41.34740 -79.36653 34956 ft 555 kts 99°
2026-05-08 02:10 41.33696 -79.26476 34955 ft 555 kts 99°
2026-05-08 02:11 41.32643 -79.16285 34959 ft 555 kts 99°
2026-05-08 02:11 41.31582 -79.06115 34952 ft 555 kts 99°
2026-05-08 02:12 41.30514 -78.95959 34952 ft 554 kts 99°
2026-05-08 02:12 41.29439 -78.85826 34970 ft 553 kts 100°
2026-05-08 02:13 41.28339 -78.75776 34957 ft 553 kts 100°
2026-05-08 02:13 41.27219 -78.65660 34913 ft 552 kts 101°
2026-05-08 02:14 41.26096 -78.55573 34927 ft 551 kts 101°
2026-05-08 02:14 41.24968 -78.45511 34935 ft 550 kts 101°
2026-05-08 02:15 41.23858 -78.35509 34950 ft 550 kts 100°
2026-05-08 02:15 41.22749 -78.25465 34946 ft 549 kts 100°
2026-05-08 02:16 41.21628 -78.15431 34945 ft 549 kts 101°
2026-05-08 02:16 41.20440 -78.05405 34931 ft 549 kts 102°
2026-05-08 02:17 41.19177 -77.95399 34917 ft 549 kts 102°
2026-05-08 02:17 41.17909 -77.85408 34915 ft 549 kts 102°
2026-05-08 02:18 41.16649 -77.75446 34923 ft 549 kts 102°
2026-05-08 02:18 41.15380 -77.65428 34914 ft 549 kts 102°
2026-05-08 02:19 41.14113 -77.55508 34901 ft 549 kts 103°
2026-05-08 02:19 41.12830 -77.45544 34908 ft 548 kts 103°
2026-05-08 02:20 41.11536 -77.35561 34342 ft 552 kts 103°
2026-05-08 02:20 41.10883 -77.30555 33731 ft 550 kts 103°
2026-05-08 02:20 41.10227 -77.25532 32986 ft 551 kts 103°
2026-05-08 02:21 41.09572 -77.20530 32262 ft 550 kts 103°
2026-05-08 02:21 41.08913 -77.15529 31581 ft 550 kts 104°
2026-05-08 02:21 41.08255 -77.10541 30906 ft 550 kts 104°
2026-05-08 02:21 41.07589 -77.05523 30127 ft 552 kts 104°
2026-05-08 02:22 41.06923 -77.00509 29268 ft 553 kts 104°
2026-05-08 02:22 41.06251 -76.95481 28430 ft 552 kts 104°
2026-05-08 02:22 41.05581 -76.90488 27592 ft 551 kts 104°
2026-05-08 02:22 41.04918 -76.85560 26687 ft 550 kts 104°
2026-05-08 02:23 41.04247 -76.80590 25863 ft 548 kts 105°
2026-05-08 02:23 41.03581 -76.75651 25240 ft 541 kts 105°
2026-05-08 02:23 41.02922 -76.70786 24619 ft 535 kts 105°
2026-05-08 02:23 41.02255 -76.65972 23988 ft 528 kts 107°
2026-05-08 02:24 41.01361 -76.61313 23348 ft 517 kts 113°
2026-05-08 02:24 41.00269 -76.56826 22660 ft 507 kts 115°
2026-05-08 02:24 40.99122 -76.52450 22005 ft 500 kts 115°
2026-05-08 02:24 40.97994 -76.48134 21357 ft 492 kts 115°
2026-05-08 02:25 40.96913 -76.43870 20747 ft 485 kts 114°
2026-05-08 02:25 40.95875 -76.39650 20185 ft 478 kts 114°
2026-05-08 02:25 40.94870 -76.35491 19611 ft 471 kts 113°
2026-05-08 02:25 40.93882 -76.31388 19051 ft 465 kts 113°
2026-05-08 02:26 40.92904 -76.27339 18505 ft 459 kts 113°
2026-05-08 02:26 40.91946 -76.23394 17916 ft 453 kts 113°
2026-05-08 02:26 40.90988 -76.19459 17456 ft 445 kts 112°
2026-05-08 02:26 40.90038 -76.15572 17061 ft 447 kts 112°
2026-05-08 02:27 40.89075 -76.11643 16662 ft 451 kts 113°
2026-05-08 02:27 40.88105 -76.07692 16256 ft 450 kts 112°
2026-05-08 02:27 40.87149 -76.03789 15856 ft 445 kts 112°
2026-05-08 02:27 40.86200 -75.99920 15468 ft 440 kts 112°
2026-05-08 02:28 40.85259 -75.96091 15080 ft 437 kts 112°
2026-05-08 02:28 40.84322 -75.92286 14661 ft 433 kts 111°
2026-05-08 02:28 40.83393 -75.88520 14283 ft 430 kts 111°
2026-05-08 02:28 40.82478 -75.84816 13914 ft 428 kts 111°
2026-05-08 02:29 40.81558 -75.81099 13518 ft 425 kts 110°
2026-05-08 02:29 40.80644 -75.77406 13102 ft 421 kts 111°
2026-05-08 02:29 40.79732 -75.73733 12781 ft 418 kts 111°
2026-05-08 02:29 40.78828 -75.70105 12770 ft 417 kts 111°
2026-05-08 02:30 40.77911 -75.66429 12652 ft 422 kts 111°
2026-05-08 02:30 40.76999 -75.62767 12505 ft 419 kts 111°
2026-05-08 02:30 40.76090 -75.59123 12370 ft 417 kts 110°
2026-05-08 02:30 40.75195 -75.55547 12232 ft 415 kts 111°
2026-05-08 02:31 40.74291 -75.51939 12097 ft 414 kts 110°
2026-05-08 02:31 40.73388 -75.48339 11961 ft 413 kts 110°
2026-05-08 02:31 40.72492 -75.44744 11821 ft 412 kts 109°
2026-05-08 02:31 40.71706 -75.41109 11675 ft 412 kts 107°
2026-05-08 02:32 40.70999 -75.37448 11541 ft 411 kts 106°
2026-05-08 02:32 40.70309 -75.33797 11406 ft 410 kts 106°
2026-05-08 02:32 40.69608 -75.30146 11265 ft 410 kts 106°
2026-05-08 02:32 40.68898 -75.26521 11123 ft 409 kts 106°
2026-05-08 02:33 40.68178 -75.22906 10985 ft 407 kts 106°
2026-05-08 02:33 40.67456 -75.19305 10845 ft 402 kts 106°
2026-05-08 02:33 40.66686 -75.15837 10691 ft 385 kts 114°
2026-05-08 02:33 40.65322 -75.12944 10557 ft 362 kts 135°
2026-05-08 02:34 40.63643 -75.10574 10463 ft 347 kts 137°
2026-05-08 02:34 40.62026 -75.08338 10328 ft 335 kts 137°
2026-05-08 02:34 40.60453 -75.06146 10219 ft 324 kts 137°
2026-05-08 02:34 40.58940 -75.04012 10103 ft 314 kts 137°
2026-05-08 02:35 40.57483 -75.01939 9997 ft 304 kts 135°
2026-05-08 02:35 40.56365 -74.99609 9843 ft 301 kts 114°
2026-05-08 02:35 40.55621 -74.97065 9710 ft 296 kts 112°
2026-05-08 02:35 40.54896 -74.94534 9547 ft 295 kts 112°
2026-05-08 02:36 40.54164 -74.92006 9380 ft 296 kts 112°
2026-05-08 02:36 40.53421 -74.89471 9232 ft 297 kts 112°
2026-05-08 02:36 40.52673 -74.86943 9057 ft 296 kts 112°
2026-05-08 02:36 40.51923 -74.84420 8898 ft 295 kts 112°
2026-05-08 02:37 40.51175 -74.81914 8722 ft 294 kts 112°
2026-05-08 02:37 40.50427 -74.79418 8581 ft 293 kts 112°
2026-05-08 02:37 40.49689 -74.76961 8422 ft 292 kts 112°
2026-05-08 02:37 40.48946 -74.74486 8265 ft 291 kts 112°
2026-05-08 02:38 40.48203 -74.72016 8113 ft 289 kts 112°
2026-05-08 02:38 40.47463 -74.69561 7938 ft 288 kts 112°
2026-05-08 02:38 40.46728 -74.67120 7791 ft 286 kts 112°
2026-05-08 02:38 40.45996 -74.64692 7628 ft 285 kts 112°
2026-05-08 02:39 40.45269 -74.62280 7488 ft 283 kts 112°
2026-05-08 02:39 40.44544 -74.59880 7333 ft 282 kts 112°
2026-05-08 02:39 40.43823 -74.57498 7181 ft 281 kts 112°
2026-05-08 02:39 40.43149 -74.55093 7030 ft 280 kts 103°
2026-05-08 02:40 40.43178 -74.52567 6872 ft 278 kts 75°
2026-05-08 02:40 40.43756 -74.50163 6742 ft 275 kts 69°
2026-05-08 02:40 40.44406 -74.47802 6579 ft 275 kts 69°
2026-05-08 02:40 40.45055 -74.45480 6454 ft 274 kts 69°
2026-05-08 02:41 40.45707 -74.43132 6304 ft 273 kts 69°
2026-05-08 02:41 40.46354 -74.40781 6147 ft 272 kts 69°
2026-05-08 02:41 40.46992 -74.38444 5997 ft 272 kts 69°
2026-05-08 02:41 40.47625 -74.36110 5844 ft 271 kts 69°
2026-05-08 02:42 40.48253 -74.33782 5698 ft 270 kts 69°
2026-05-08 02:42 40.48878 -74.31464 5561 ft 269 kts 70°
2026-05-08 02:42 40.49498 -74.29156 5412 ft 268 kts 70°
2026-05-08 02:42 40.50117 -74.26845 5268 ft 267 kts 70°
2026-05-08 02:43 40.50733 -74.24546 5127 ft 267 kts 70°
2026-05-08 02:43 40.51348 -74.22246 4979 ft 266 kts 70°
2026-05-08 02:43 40.51960 -74.19955 4837 ft 266 kts 70°
2026-05-08 02:43 40.52562 -74.17698 4695 ft 265 kts 70°
2026-05-08 02:44 40.53173 -74.15409 4545 ft 264 kts 70°
2026-05-08 02:44 40.53780 -74.13128 4396 ft 263 kts 70°
2026-05-08 02:44 40.54382 -74.10865 4253 ft 262 kts 70°
2026-05-08 02:44 40.54984 -74.08604 4110 ft 261 kts 70°
2026-05-08 02:45 40.55718 -74.06435 3945 ft 259 kts 52°
2026-05-08 02:45 40.57072 -74.04932 3842 ft 255 kts 32°
2026-05-08 02:45 40.58552 -74.03675 3690 ft 252 kts 33°
2026-05-08 02:45 40.60003 -74.02418 3552 ft 245 kts 32°
2026-05-08 02:46 40.61378 -74.01264 3458 ft 228 kts 32°
2026-05-08 02:46 40.62665 -74.00199 3330 ft 208 kts 31°
2026-05-08 02:46 40.63832 -73.99233 3196 ft 190 kts 31°
2026-05-08 02:46 40.64931 -73.98326 2957 ft 181 kts 32°
2026-05-08 02:47 40.65967 -73.97467 2699 ft 170 kts 31°
2026-05-08 02:47 40.66943 -73.96661 2459 ft 161 kts 31°
2026-05-08 02:47 40.67841 -73.95918 2276 ft 147 kts 31°
2026-05-08 02:47 40.68698 -73.95209 2052 ft 145 kts 31°
2026-05-08 02:48 40.69563 -73.94493 1838 ft 147 kts 31°
2026-05-08 02:48 40.70435 -73.93772 1631 ft 147 kts 31°
2026-05-08 02:48 40.71291 -73.93064 1419 ft 146 kts 31°
2026-05-08 02:48 40.72064 -73.92204 1249 ft 147 kts 46°
2026-05-08 02:49 40.72633 -73.91074 1068 ft 153 kts 78°
2026-05-08 02:49 40.72519 -73.89687 977 ft 155 kts 90°
2026-05-08 02:49 40.72654 -73.88279 922 ft 154 kts 81°
2026-05-08 02:49 40.72780 -73.86881 911 ft 154 kts 82°
2026-05-08 02:50 40.72900 -73.85476 901 ft 154 kts 79°
2026-05-08 02:50 40.73345 -73.84226 886 ft 152 kts 41°
2026-05-08 02:50 40.74222 -73.83475 914 ft 156 kts 31°
2026-05-08 02:50 40.75270 -73.83161 680 ft 161 kts 349°
2026-05-08 02:51 40.76234 -73.83808 422 ft 155 kts 320°
2026-05-08 02:51 40.76853 -73.84962 207 ft 153 kts 301°
2026-05-08 02:51 40.77408 -73.86138 28 ft 147 kts 305°
2026-05-08 02:51 40.77880 -73.87107 15 ft 99 kts 304°
2026-05-08 02:52 40.78132 -73.87648 15 ft 38 kts 301°
2026-05-08 02:52 40.78202 -73.87813 17 ft 16 kts 277°
2026-05-08 02:52 40.78143 -73.87856 17 ft 12 kts 168°
2026-05-08 02:52 40.78060 -73.87834 16 ft 13 kts 168°
2026-05-08 02:53 40.77993 -73.87770 18 ft 13 kts 117°
2026-05-08 02:53 40.77950 -73.87669 16 ft 13 kts 122°
2026-05-08 02:53 40.77896 -73.87555 17 ft 17 kts 122°
2026-05-08 02:53 40.77835 -73.87395 13 ft 21 kts 92°
2026-05-08 02:54 40.77812 -73.87214 13 ft 20 kts 119°
2026-05-08 02:54 40.77750 -73.87083 12 ft 15 kts 122°
2026-05-08 02:54 40.77699 -73.86977 12 ft 13 kts 122°
2026-05-08 02:54 40.77652 -73.86876 11 ft 13 kts 121°
2026-05-08 02:55 40.77586 -73.86828 12 ft 12 kts 216°
2026-05-08 02:55 40.77532 -73.87000 18 ft 12 kts 212°
2026-05-08 02:55 40.77463 -73.87054 19 ft 11 kts 210°
2026-05-08 02:56 40.77394 -73.87105 19 ft 11 kts 202°
2026-05-08 02:56 40.77331 -73.87057 19 ft 11 kts 132°
2026-05-08 02:56 40.77279 -73.86984 19 ft 11 kts 134°
2026-05-08 02:56 40.77257 -73.86930 19 ft 4 kts 78°
2026-05-08 02:57 40.77273 -73.86904 19 ft 4 kts 46°
2026-05-08 02:57 40.77283 -73.86889 19 ft 1 kts 46°
2026-05-08 02:57 40.77286 -73.86886 19 ft 0 kts 46°